Flag for Uruguay Weather past 2 weeks in Canelones, Uruguay

Now
52 °F

Clear.


Feels Like: 50 °F
Forecast: 47 / 69 °F
Wind: 6 mph from Northeast

Location: Carrasco

Current Time: Sep 18, 2014 at 3:00:07 AM

Latest Report: Sep 18, 2014 at 2:00 AM


Visibility: 10 mi

Pressure: 30.09 "Hg

Humidity: 94%

Dew point: 50 °F

Location of CanelonesLocation

Historic Weather in Canelones — Graph

°F

Canelones temperature yesterday

Maximum temperature yesterday: 64 °F (at 1:00 PM)
Minimum temperature yesterday: 46 °F (at 5:00 AM)
Average temperature yesterday: 55 °F

Past Weeks' High & Low Weather Summary

 TemperatureHumidityPressure
High75 °F (Sep 8, 4:00 PM)100% (Sep 6, 8:00 AM)30.27 "Hg (Sep 6, 8:00 AM)
Low43 °F (Sep 11, 7:00 AM)26% (Sep 7, 3:00 PM)29.47 "Hg (Sep 9, 9:00 AM)
Average58 °F77%30.00 "Hg
* Reported Sep 3 2:00 AM — Sep 18 2:00 AM, Canelones, Weather by CustomWeather, © 2014

Note: Actual official high and low records may vary slightly from our data, if they occured in-between our weather recording intervals... More about our weather records

Advertising

Canelones weather history for previous 24 hours

 ConditionsComfort  
Time TempWeatherWind HumidityBarometerVisibility
2:00 AM
Sep 18
52 °FClear.6 mph94%30.09 "Hg10 mi
1:00 AM54 °FClear.7 mph88%30.09 "Hg10 mi
12:00 AM54 °FClear.7 mph82%30.09 "Hg10 mi
11:00 PM
Sep 17
55 °FClear.9 mph77%30.09 "Hg10 mi
10:00 PM55 °FClear.9 mph88%30.09 "Hg10 mi
9:00 PM57 °FClear.7 mph94%30.09 "Hg10 mi
8:00 PM57 °FClear.5 mph94%30.09 "Hg10 mi
7:00 PM59 °FClear.7 mph82%30.09 "Hg10 mi
6:00 PM61 °FClear.13 mph83%30.09 "Hg10 mi
5:00 PM63 °FSunny.13 mph68%30.09 "Hg10 mi
4:00 PM63 °FSunny.13 mph68%30.09 "Hg10 mi
3:00 PM64 °FSunny.10 mph68%30.09 "Hg10 mi
2:00 PM64 °FPassing clouds.9 mph68%30.12 "HgN/A
1:00 PM64 °FPassing clouds.7 mph56%30.15 "HgN/A
12:00 PM61 °FSunny.6 mph72%30.15 "Hg10 mi
11:00 AM54 °FPartly sunny.7 mph88%30.15 "HgN/A
10:00 AM54 °FPartly sunny.10 mph77%30.15 "HgN/A
9:00 AM54 °FSunny.8 mph88%30.12 "Hg10 mi
8:00 AM50 °FSunny.9 mph100%30.12 "Hg10 mi
7:00 AM46 °FSunny.6 mph100%30.12 "Hg10 mi
6:00 AM48 °FSunny.5 mph87%30.12 "Hg10 mi
5:00 AM46 °FClear.3 mph93%30.09 "Hg10 mi
4:00 AM48 °FClear.5 mph94%30.09 "Hg10 mi
3:00 AM48 °FClear.7 mph94%30.09 "Hg10 mi
Weather by CustomWeather, © 2014

See weather overviewHow to use our weather pages